Weather History for Stanley, ID

Change the Weather History Date:

Monday, April 1, 2013

  Actual Average Record
Temperature  
Mean Temperature 37 °F 30 °F  
Max Temperature 57 °F 44 °F 64 °F (1990)
Min Temperature 16 °F 16 °F -17 °F (2008)
Degree Days  
Heating Degree Days 28 35  
Month to date heating degree days 28 35  
Since 1 July heating degree days 8312 8753  
Cooling Degree Days 0 0  
Month to date cooling degree days 0 0  
Year to date cooling degree days 0 0  
Moisture  
Dew Point 19 °F    
Average Humidity 53    
Maximum Humidity 84    
Minimum Humidity 22    
Precipitation  
Precipitation 0.00 in 0.07 in 0.84 in (2014)
Month to date precipitation 0.00 0.07  
Year to date precipitation 2.83 5.19  
Sea Level Pressure  
Sea Level Pressure 29.92 in    
Wind  
Wind Speed 2 mph (NW)    
Max Wind Speed 10 mph    
Max Gust Speed 15 mph    
T = Trace of Precipitation, MM = Missing Value Source: NWS Daily Summary

Daily Weather History Graph

Daily Weather History Graph

Search for Another Location

Airport:

Trip Planner

Search our weather history database for the weather conditions in past years. The results will help you decide how hot, cold, wet, or windy it might be!

Date:

Astronomy

Apr. 01, 2013 Rise Set
Actual Time 7:20 AM MDT 8:07 PM MDT
Civil Twilight 6:51 AM MDT 8:36 PM MDT
Nautical Twilight 6:16 AM MDT 9:11 PM MDT
Astronomical Twilight 5:40 AM MDT 9:47 PM MDT
Moon 1:29 AM MDT (4/1) 11:01 AM MDT (4/1)
Length of Visible Light 13h 45m
Length of Day
12h 46m
Waning Gibbous, 66% of the Moon is Illuminated
Apr 1
Waning Gibbous
Apr 2
Last Quarter
Apr 10
New
Apr 18
First Quarter
Apr 25
Full

Hourly Weather History & Observations

Time (MDT) Temp. Windchill Dew Point Humidity Pressure Visibility Wind Dir Wind Speed Gust Speed Precip Events Conditions
12:51 AM 26.1 °F - 16.0 °F 66% 29.93 in - Calm Calm - N/A   Unknown
1:51 AM 24.1 °F - 16.0 °F 71% 29.92 in - Calm Calm - N/A   Unknown
2:51 AM 21.0 °F - 15.1 °F 78% 29.92 in - Calm Calm - N/A   Unknown
3:51 AM 19.9 °F - 15.1 °F 81% 29.92 in - Calm Calm - N/A   Unknown
4:51 AM 19.0 °F - 14.0 °F 81% 29.91 in - Calm Calm - N/A   Unknown
5:51 AM 19.0 °F - 14.0 °F 81% 29.91 in - Calm Calm - N/A   Unknown
6:51 AM 17.1 °F - 12.9 °F 84% 29.93 in - Calm Calm - N/A   Unknown
7:51 AM 17.1 °F 10.0 °F 12.9 °F 84% 30.01 in - ESE 4.6 mph - N/A   Unknown
8:51 AM 24.1 °F - 19.0 °F 81% 30.01 in - Calm Calm - N/A   Unknown
9:51 AM 30.0 °F - 19.9 °F 66% 29.98 in - Calm Calm - N/A   Unknown
10:51 AM 37.9 °F - 21.0 °F 51% 29.95 in - Calm Calm - N/A   Unknown
11:51 AM 41.0 °F 38.0 °F 21.0 °F 45% 29.92 in - NNW 4.6 mph - N/A   Unknown
12:51 PM 48.0 °F - 19.9 °F 33% 29.89 in - NNW 5.8 mph - N/A   Unknown
1:51 PM 51.1 °F - 19.0 °F 28% 29.87 in - Calm Calm - N/A   Unknown
2:51 PM 55.9 °F - 18.0 °F 23% 29.85 in - NNW 5.8 mph - N/A   Unknown
3:51 PM 55.0 °F - 18.0 °F 23% 29.85 in - NNW 6.9 mph - N/A   Unknown
4:51 PM 55.9 °F - 19.9 °F 25% 29.84 in - NW 4.6 mph - N/A   Unknown
5:51 PM 55.0 °F - 17.1 °F 23% 29.85 in - NW 6.9 mph - N/A   Unknown
6:51 PM 53.1 °F - 17.1 °F 24% 29.87 in - NW 6.9 mph - N/A   Unknown
7:51 PM 44.1 °F - 25.0 °F 47% 29.93 in - Calm Calm - N/A   Unknown
8:51 PM 37.0 °F - 25.0 °F 62% 29.94 in - Calm Calm - N/A   Unknown
9:51 PM 36.0 °F - 25.0 °F 64% 29.95 in - Calm Calm - N/A   Unknown
10:51 PM 32.0 °F - 25.0 °F 75% 29.95 in - Calm Calm - N/A   Unknown
11:51 PM 32.0 °F 28.7 °F 25.0 °F 75% 29.95 in - South 3.5 mph - N/A   Unknown